Regional Weather Roundup
Issued by NWS Pendleton, OR

Home | Current Version | Previous Version | Text Only | Print | Product List | Glossary On
Versions: 1 2 3 4 5 6 7 8 9 10 11 12 13 14 15 16 17 18 19 20 21 22 23 24 25 26 27 28 29 30 31 32 33 34 35 36 37 38 39 40 41 42 43 44 45 46 47 48 49 50
000
ASUS46 KPDT 100525
RWRPDT
PENDLETON REGIONAL WEATHER ROUNDUP
NATIONAL WEATHER SERVICE PENDLETON OREGON
1000 PM PDT WED JUL 9 2014

NOTE: FAIR INDICATES FEW OR NO CLOUDS BELOW 12,000 FEET WITH NO
SIGNIFICANT WEATHER AND/OR OBSTRUCTIONS TO VISIBILITY.

# INDICATES UNOFFICIAL STATION AND DATA

WAZ520-100610-
EAST SLOPES OF WASHINGTON CASCADES

CITY            SKY/WX      TMP DP  RH  WIND    PRES   REMARKS
#BUMPING DAM    N/A         64  N/A N/A W8      N/A
#CLE ELUM HS    N/A         68  51  55  SW5     29.87R
#CLE ELUM LAKE  N/A         64  50  60  NW1     29.78S
#CLIFFDEL 2NW   N/A         66  51  58  N5      N/A
#GLENWOOD       N/A         69  56  63  S2      29.75R
#MANASTASH CYN  N/A         67  39  36  W1      29.90R
#NELSON         N/A         68  53  59  CALM    29.82R
#NELSON 3SW     N/A         65  45  48  CALM    29.98R
#NILE           N/A         70  50  49  CALM    29.10R
#RONALD 2NW     N/A         67  48  50  NE1     29.84R
#TROUT LAKE 1NE N/A         71  55  57  W7      29.76R
$$

WAZ521-100610-
SIMCOE HIGHLANDS

CITY            SKY/WX      TMP DP  RH  WIND    PRES   REMARKS
#BICKLETON HS   N/A         75  32  21  N7      29.91S
#CENTERVILLE 4W N/A         71  56  59  NW25    29.62R
#CENTERVILLE 1SWN/A         71  55  57  W15     29.72R
#GOLDENDALE 1NE N/A         73  50  44  SW3     N/A
#GOLDENDALE 1S  N/A         71  57  61  W3      29.83R
#GOLDENDALE 5WNWN/A         72  57  59  W15     29.73R
#GOODNOE HILLS  N/A         75  56  52  W12     29.75R
#LYLE 6NE       N/A         71  56  59  SW9     29.75R
$$

WAZ026-100610-
KITTITAS VALLEY

CITY            SKY/WX      TMP DP  RH  WIND    PRES   REMARKS
#ELLENSBURG 3NE N/A         70  50  49  W9      29.85R
#ELLENSBURG 1E  N/A         73  42  33  NW1     N/A
#KITTITAS 3S    N/A         72  46  39  W8      29.71R
#THORP 6N       N/A         68  50  53  NW22G35 29.76R
$$

WAZ027-100610-
YAKIMA VALLEY

CITY            SKY/WX      TMP DP  RH  WIND    PRES   REMARKS
YAKIMA AIRPORT  CLEAR       81  40  23  N12     29.80R
YAKIMA-VAGABOND CLEAR       81  35  19  N13     29.83R
#COWICHE 1N     N/A         73  45  37  W20     29.97R
#DONALD 2NE     N/A         82  12   7  W5      30.09R
#GRANDVIEW      N/A         81  39  22  W1      29.71R
#MABTON         N/A         80  43  27  SW7     29.73R
#MOXEE 2E       N/A         80  11   7  NW3     29.71R
#NACHES 2SW     N/A         74  43  33  W17G29  29.81F
#OUTLOOK DOT    N/A         N/A N/A N/A N15     N/A
#SELAH 8E       N/A         73  35  25  N6      N/A
#TERRACE HTS    N/A         81  35  19  N12     29.67R
#TOPPENISH      N/A         83  42  24  N3      29.62R
#WAPATO 4NE     N/A         82  12   7  W7      30.09R
#WEST VALLEY    N/A         78  42  28  N3      29.73R
#W YAKIMA       N/A         78  44  30  W7      29.73R
#WHITE SWAN 5E  N/A         76  51  42  E6      29.70R
#WILEY CITY 3W  N/A         77  35  22  CALM    29.77R
$$

WAZ028-100610-
LOWER COLUMBIA BASIN...WASHINGTON

CITY            SKY/WX      TMP DP  RH  WIND    PRES   REMARKS
PASCO           CLEAR       81  46  29  N12     29.72R
PROSSER AWOS    N/A         75  46  36  SW6     29.77R
RICHLAND AWOS   CLEAR       86  37  18  N14     29.71R
#BASIN CITY 5SW N/A         80  51  36  W13     29.72R
#BENTON CITY    N/A         84  55  37  CALM    29.58R
#CONNELL 5N     N/A         78  49  36  W3      29.67R
#CONNELL 5NW    N/A         74  54  50  NW2     29.64R
#ELTOPIA 6NW    N/A         75  53  46  W8      28.71R
#KENNEWICK 3S   N/A         84  57  40  S1      29.70R
#PASCO-BROADMOORN/A         85  42  22  N5      29.59R
#PATERSON       N/A         77  61  58  SW5     29.66R
#PROSSER        N/A         86  38  18  CALM    29.67R
#SAGEMOOR 2W    N/A         78  51  39  W7      29.54R
#TOUCHET 2S     N/A         82  52  35  SW7     29.66R
#WEST PASCO     N/A         85  45  25  NW7     29.68R
$$

WAZ029-100610-
FOOTHILLS OF THE BLUES...WASHINGTON

CITY            SKY/WX      TMP DP  RH  WIND    PRES   REMARKS
#COLLEGE PLACE  N/A         86  45  24  E1      29.73R
#LOWDEN 2SE     N/A         80  50  35  CALM    29.69R
#PLEASANT VIEW 1N/A         80  41  25  SW5     29.70R
#PRESCOTT       N/A         69  46  44  CALM    29.66R
#SUDBURY        N/A         70  N/A N/A CALM    N/A
#WHITMAN COLLEGEN/A         81  46  29  SE3     29.74R
#WAITSBURG 8N   N/A         63  27  25  CALM    29.62R
#WALLA WALLA 5E N/A         70  46  42  W5      N/A
#WHITMAN MISSIONN/A         73  58  59  CALM    29.70R
$$

WAZ030-100610-
BLUE MOUNTAINS...WASHINGTON

CITY            SKY/WX      TMP DP  RH  WIND    PRES   REMARKS
$$

ORZ009-041-WAZ024-100610-
COLUMBIA RIVER GORGE

CITY            SKY/WX      TMP DP  RH  WIND    PRES   REMARKS
HOOD RIVER AP   CLEAR       72  55  55  NW8     29.87R
THE DALLES AP   CLEAR       77  54  45  NW16    29.79R
#ARLINGTON AIRPON/A         78  55  45  W20     N/A
#ARLINGTON HS   N/A         81  55  41  CALM    29.63R
#CELILO DOT     N/A         79  53  41  E2      N/A
#MOSIER 1S      N/A         74  37  26  W8      29.88S
#MURDOCK        N/A         78  57  48  NW17G36 29.80R
#RUFUS DOT      N/A         80  56  44  NE5     N/A

$$

ORZ510-100610-
NORTH CENTRAL OREGON

CITY            SKY/WX      TMP DP  RH  WIND    PRES   REMARKS
#CHENOWITH 1W   N/A         71  46  41  W31     N/A
#COW CYN RST AREN/A         69  N/A N/A SW6     N/A
#GRASS VALLEY 1SN/A         74  42  32  NW6     29.77R
#KENT DOT       N/A         68  32  26  W7      N/A
#MAUPIN SCHOOL  N/A         77  46  33  SW7     29.86R
#MORO SCHOOL    N/A         75  53  46  W15     29.87R
#SHANIKO 5WSW   N/A         69  30  23  SE2     N/A
#SHANIKO 4NW    N/A         70  29  22  W7      29.97R
#TYGH VALLEY 2NEN/A         73  45  37  CALM    29.76R
#WAPANITIA AIRPON/A         71  43  36  W10     29.77R
#WASCO DOT      N/A         74  53  48  W12     N/A
#WASCO 5NE      N/A         72  52  49  W8      29.72R
$$

ORZ511-100610-
CENTRAL OREGON

CITY            SKY/WX      TMP DP  RH  WIND    PRES   REMARKS
BEND AIRPORT    CLEAR       72  45  38  CALM    29.99R
MADRAS AIRPORT  CLEAR       72  36  27  N13     29.94R
REDMOND AIRPORT CLEAR       74  43  33  N7      29.95R
#BEND 6E        N/A         72  41  33  CALM    29.67R
#BEND 1SW       N/A         67  42  40  S1      N/A
#BEND-AWBREY    N/A         69  48  47  W1      29.76R
#BEND-KIM LN    N/A         71  50  47  CALM    29.96R
#CULVER         N/A         72  42  34  NE3     29.90R
#LAKE BILLY CHINN/A         75  10   8  SE6     29.96R
#POWELL BUTTE   N/A         71  39  31  W3      29.64R
#PRINEVILLE 3N  N/A         73  35  25  CALM    29.71R


ORZ509-100610-
EAST SLOPES OF OREGON CASCADES

CITY            SKY/WX      TMP DP  RH  WIND    PRES   REMARKS
#BLUE BOX PASS  N/A         58   5  12  NW3     N/A
#BLACK BUTTE RNCN/A         69  53  57  CALM    29.75R
#CAMP SHERMAN   N/A         68  49  51  CALM    29.77F
#LA PINE DOT    N/A         68  40  36  SW1     N/A
#LA PINE 4NW    N/A         66  49  54  CALM    29.80R
#LAVA BUTTE DOT N/A         65  43  45  SE2     N/A
#SISTERS AIRPOR N/A         71  58  64  N3      29.97R
#SISTERS ODOT   N/A         70  N/A N/A W2      N/A
#SISTERS 3N     N/A         70  32  24  CALM    29.98S
#SUNRIVER       N/A         68  49  51  CALM    29.64R
#SUNRIVER AP    N/A         69  48  47  CALM    29.71R
#SUTTLE LK DOT  N/A         62  51  67  W20     N/A
#TUMALO 3W      N/A         71  46  41  CALM    29.65R
#WANOGA BUTTE D N/A         65   9  11  CALM    N/A

$$

ORZ044-100610-
LOWER COLUMBIA BASIN...OREGON

CITY            SKY/WX      TMP DP  RH  WIND    PRES   REMARKS
HERMISTON       CLEAR       82  54  38  SW12    29.74R
#BOARDMAN 3W    N/A         82  56  41  W16     29.38S
#BOARDMAN 8SW   N/A         79  57  47  SW12    29.70R
#IONE SCHOOL    N/A         81  48  32  SW10    29.79R
#IRRIGON 4NW    N/A         83  57  41  S13     N/A
#UMATILLA SCHOOLN/A         81  65  58  CALM    29.82R
#UMATILLA       N/A         81  54  39  CALM    29.70R
$$

ORZ507-100610-
NORTHERN FOOTHILLS OF THE BLUES

CITY            SKY/WX      TMP DP  RH  WIND    PRES   REMARKS
PENDLETON AIRPT CLEAR       77  40  26  W9      29.80R
#ADAMS 3WNW     N/A         73  42  33  W3      29.70R
#ATHENA         N/A         72  44  37  CALM    29.73R
#HELIX SCHOOL   N/A         72  41  33  W2      29.70R
#HELIX 3N       N/A         77  41  28  SW8     29.80R
#M-F FERNDALE   N/A         76  46  34  CALM    29.74R
#M-F GROVE ELEM N/A         77  40  26  SE2     29.77R
#M-FREEWATER 5SEN/A         74  49  41  CALM    29.79R
#PDT AQUATIC CTRN/A         82  39  22  NW5     29.80S
#PENDLETON DNTN N/A         79  40  25  CALM    29.75R
#PDT SUNRIDGE   N/A         81  41  24  CALM    29.79R
#PENDLETON 7NW  N/A         78  52  40  W2      28.36S
#PILOT ROCK     N/A         77  37  24  S7      29.85R
#TUTUILLA       N/A         70  48  46  CALM    29.67R
#UMAPINE 2E     N/A         69  53  57  CALM    29.71R
#WESTON SCHOOL  N/A         74  39  28  W2      29.81R

$$

ORZ508-100610-
SOUTHERN FOOTHILLS OF THE BLUES

CITY            SKY/WX      TMP DP  RH  WIND    PRES   REMARKS
LEXINGTON       CLEAR       79  46  31  SW6     29.85R
#AJAX           N/A         N/A N/A N/A W9      29.92R
#CONDON SCHOOL  N/A         73  42  33  W7      29.88R
#CONDON 5W      N/A         70  37  30  W9      29.91R
#FOSSIL SCHOOL  N/A         73  34  24  CALM    29.90R
#HEPPNER EOC    N/A         76  43  31  NW2     29.69R
#HEPPNER 4NE    N/A         73  45  37  SW5     29.72R
#LEXINGTON 2SE  N/A         69  47  45  SE5     29.79R
#MIKKALO        N/A         77  46  33  W10     29.86R
#OLEX 4N        N/A         78  50  38  W15G25  29.78R
#RUGGS 5NE      N/A         72  39  30  SW3     30.07S
#RUGGS 2SW      N/A         75  38  26  W13     29.76R

$$

ORZ502-503-100610-
BLUE MOUNTAINS

CITY            SKY/WX      TMP DP  RH  WIND    PRES   REMARKS
MEACHAM         CLEAR       61  50  67  CALM    29.97R
#BATTLE MTN DOT N/A         65  45  48  E2      N/A
#HARDMAN 10S    N/A         66  38  36  CALM    30.05R
#HEPPNER 15SE   N/A         61  42  50  S1      29.90R
#LADD CYN SMT   N/A         61  51  70  E2      N/A
#LADD CREEK ODOTN/A         65  52  63  SW3     N/A
#LONG CREEK HS  N/A         70  40  34  CALM    29.91R
#N POWDER DOT   N/A         65  60  84  NW2     N/A
#TROY SCHOOL    N/A         77  51  40  SW2     29.55R
#UKIAH          N/A         62  44  52  CALM    29.77R
#WESTON 4E      N/A         75  38  26  SW1     29.67R
$$

ORZ505-100610-
JOHN DAY BASIN

CITY            SKY/WX      TMP DP  RH  WIND    PRES   REMARKS
JOHN DAY        CLEAR       72  57  59  SE9     29.97R
#JOHN DAY KJDY  N/A         75  61  62  CALM    29.84R
#MONUMENT HS    N/A         78  40  26  CALM    29.60R
#MT. VERNON 5SE N/A         72  53  51  E1      29.94R
#WINLOCK        N/A         72  33  24  CALM    30.00R
$$

ORZ506-100610-
OCHOCO AND JOHN DAY HIGHLANDS

CITY            SKY/WX      TMP DP  RH  WIND    PRES   REMARKS
#BUCK CREEK DOT N/A         74  57  55  SE7     N/A
#HORSE RIDGE DO N/A         69  42  37  S1      N/A
#KEYES SMT DOT  N/A         70  28  21  NW6     N/A
#PAULINA SCHOOL N/A         76  47  36  CALM    29.97R
#PINE MTN OBS   N/A         64  43  46  N6      N/A
#PRAIRIE CITY   N/A         62  55  78  CALM    29.86R
#SENECA 9NW     N/A         59  55  87  CALM    29.73R
$$

ORZ049-100610-
GRANDE RONDE VALLEY

CITY            SKY/WX      TMP DP  RH  WIND    PRES   REMARKS
LA GRANDE       CLEAR       68  43  40  NE5     29.89R
#COVE           N/A         71  58  64  CALM    29.82R
#COVE SCHOOL    N/A         71  54  55  E1      29.88S
#COVE 6NW       N/A         70  57  63  CALM    29.76R
#ELGIN 3N       N/A         65  45  48  CALM    29.63R
#ELGIN 1E       N/A         71  49  46  CALM    N/A
#ISLAND CITY 4N N/A         69  51  53  CALM    29.67R
#LADD CYN DOT   N/A         72  47  41  SE15    N/A
#UNION 1S       N/A         72  54  53  CALM    29.63R
$$

ORZ050-100610-
WALLOWA COUNTY

CITY            SKY/WX      TMP DP  RH  WIND    PRES   REMARKS
JOSEPH AIRPORT  PTCLDY      64  50  60  S6      29.98R
#ENTERPRISE HS  N/A         68  47  47  CALM    29.95R
#IMNAHA SCHOOL  N/A         82  47  29  SW1     29.76R
#IMNAHA 10S     N/A         75  53  46  SW3     29.88R
#JOSEPH 3N      N/A         62  50  65  CALM    29.99R
#LOSTINE        N/A         65  53  65  CALM    29.53R
#MT HOWARD 8000 N/A         59  43  55  CALM    30.27R
#PROMISE 1S     N/A         69  46  44  CALM    29.84R
#SHEEP RDG 7000 N/A         64  42  45  CALM    29.71R
#WALLOWA SCHOOL N/A         70  48  46  CALM    30.58R



$$



USA.gov is the U.S. government's official web portal to all federal, state and local government web resources and services.